| time (UTC) | temp C | wind direction | speed KPH | gust KPH | rain 1hr cm | rain 24hr cm | rain mn cm | humidity % | barometer mb |
| 20260506051052 | 15 | 340 | 1.6 | 8.0 | 0.00 | 0.00 | 0.00 | 67 | 1017.5 |
| 20260506050551 | 15 | 44 | 1.6 | 9.7 | 0.00 | 0.00 | 0.00 | 68 | 1017.4 |
| 20260506045047 | 14 | 10 | 3.2 | 6.4 | 0.00 | 0.00 | 0.00 | 71 | 1017.2 |
| 20260506044554 | 13 | 360 | 3.2 | 6.4 | 0.00 | 0.00 | 0.00 | 72 | 1017.2 |
| 20260506044044 | 13 | 360 | 0.0 | 3.2 | 0.00 | 0.00 | 0.00 | 72 | 1017.3 |
| 20260506043542 | 13 | 59 | 0.0 | 4.8 | 0.00 | 0.00 | 0.00 | 72 | 1017.3 |
| 20260506043049 | 13 | 58 | 1.6 | 4.8 | 0.00 | 0.00 | 0.00 | 73 | 1017.3 |
| 20260506042540 | 13 | 57 | 1.6 | 8.0 | 0.00 | 0.00 | 0.00 | 73 | 1017.2 |
| 20260506042037 | 12 | 68 | 4.8 | 8.0 | 0.00 | 0.00 | 0.00 | 74 | 1017.2 |
| 20260506041539 | 12 | 96 | 1.6 | 8.0 | 0.00 | 0.00 | 0.00 | 74 | 1017.2 |
| 20260506041035 | 12 | 41 | 4.8 | 8.0 | 0.00 | 0.00 | 0.00 | 75 | 1017.1 |
| 20260506040534 | 12 | 22 | 4.8 | 8.0 | 0.00 | 0.00 | 0.00 | 75 | 1017.2 |
| 20260506040044 | 12 | 39 | 3.2 | 9.7 | 0.00 | 0.00 | 0.00 | 76 | 1017.1 |
| 20260506035534 | 12 | 37 | 4.8 | 8.0 | 0.00 | 0.00 | 0.00 | 75 | 1017.0 |
| 20260506035033 | 12 | 44 | 1.6 | 6.4 | 0.00 | 0.00 | 0.00 | 75 | 1016.9 |
| 20260506034531 | 12 | 49 | 3.2 | 6.4 | 0.00 | 0.00 | 0.00 | 75 | 1016.9 |
| 20260506034031 | 12 | 44 | 3.2 | 6.4 | 0.00 | 0.00 | 0.00 | 76 | 1016.8 |
| 20260506033530 | 12 | 53 | 3.2 | 6.4 | 0.00 | 0.00 | 0.00 | 76 | 1016.8 |
| 20260506033030 | 12 | 40 | 3.2 | 6.4 | 0.00 | 0.00 | 0.00 | 75 | 1016.7 |
| 20260506032529 | 12 | 19 | 3.2 | 6.4 | 0.00 | 0.00 | 0.00 | 75 | 1016.8 |
| 20260506032029 | 12 | 55 | 1.6 | 8.0 | 0.00 | 0.00 | 0.00 | 75 | 1016.8 |
| 20260506031529 | 12 | 65 | 3.2 | 8.0 | 0.00 | 0.00 | 0.00 | 76 | 1016.7 |
| 20260506031029 | 12 | 44 | 4.8 | 9.7 | 0.00 | 0.00 | 0.00 | 76 | 1016.7 |
| 20260506030527 | 12 | 33 | 4.8 | 9.7 | 0.00 | 0.00 | 0.00 | 76 | 1016.7 |
| 20260506030027 | 12 | 49 | 4.8 | 9.7 | 0.00 | 0.00 | 0.00 | 75 | 1016.7 |
| 20260506025526 | 12 | 32 | 3.2 | 6.4 | 0.00 | 0.00 | 0.00 | 75 | 1016.6 |
| 20260506025027 | 12 | 69 | 1.6 | 6.4 | 0.00 | 0.00 | 0.00 | 75 | 1016.6 |
| 20260506024534 | 12 | 55 | 3.2 | 8.0 | 0.00 | 0.00 | 0.00 | 76 | 1016.6 |
| 20260506024026 | 12 | 65 | 4.8 | 8.0 | 0.00 | 0.00 | 0.00 | 76 | 1016.7 |
| 20260506023529 | 11 | 33 | 4.8 | 8.0 | 0.00 | 0.00 | 0.00 | 77 | 1016.7 |
| 20260506023024 | 11 | 50 | 4.8 | 8.0 | 0.00 | 0.00 | 0.00 | 76 | 1016.7 |
| 20260506022524 | 11 | 15 | 4.8 | 8.0 | 0.00 | 0.00 | 0.00 | 76 | 1016.7 |
| 20260506022024 | 11 | 360 | 1.6 | 8.0 | 0.00 | 0.00 | 0.00 | 76 | 1016.8 |
| 20260506021541 | 11 | 53 | 3.2 | 8.0 | 0.00 | 0.00 | 0.00 | 76 | 1016.7 |
| 20260506021023 | 11 | 55 | 4.8 | 8.0 | 0.00 | 0.00 | 0.00 | 75 | 1016.8 |
| 20260506020526 | 11 | 34 | 4.8 | 9.7 | 0.00 | 0.00 | 0.00 | 76 | 1016.8 |
| 20260506020021 | 11 | 17 | 4.8 | 9.7 | 0.00 | 0.00 | 0.00 | 75 | 1016.9 |
| 20260506015521 | 11 | 47 | 6.4 | 12.9 | 0.00 | 0.00 | 0.00 | 75 | 1016.9 |
| 20260506015020 | 12 | 32 | 4.8 | 12.9 | 0.00 | 0.00 | 0.00 | 75 | 1016.9 |
| 20260506014524 | 12 | 39 | 4.8 | 8.0 | 0.00 | 0.00 | 0.00 | 75 | 1016.9 |
| 20260506014018 | 12 | 23 | 4.8 | 8.0 | 0.00 | 0.00 | 0.00 | 74 | 1016.9 |
| 20260506013518 | 12 | 48 | 4.8 | 12.9 | 0.00 | 0.00 | 0.00 | 74 | 1017.0 |
| 20260506013017 | 12 | 46 | 6.4 | 12.9 | 0.00 | 0.00 | 0.00 | 74 | 1017.0 |
| 20260506012516 | 12 | 46 | 6.4 | 11.3 | 0.00 | 0.00 | 0.00 | 75 | 1017.0 |
| 20260506012015 | 11 | 26 | 4.8 | 11.3 | 0.00 | 0.00 | 0.00 | 75 | 1016.9 |
| 20260506011522 | 12 | 29 | 6.4 | 9.7 | 0.00 | 0.00 | 0.00 | 74 | 1016.9 |
| 20260506011014 | 12 | 36 | 6.4 | 9.7 | 0.00 | 0.00 | 0.00 | 74 | 1016.9 |
| 20260506010516 | 12 | 60 | 3.2 | 9.7 | 0.00 | 0.00 | 0.00 | 74 | 1016.9 |
| 20260506010015 | 12 | 61 | 4.8 | 9.7 | 0.00 | 0.00 | 0.00 | 74 | 1016.9 |
| 20260506005512 | 12 | 44 | 4.8 | 9.7 | 0.00 | 0.00 | 0.00 | 74 | 1017.0 |
| 20260506005015 | 12 | 61 | 4.8 | 9.7 | 0.00 | 0.00 | 0.00 | 74 | 1017.0 |
| 20260506004509 | 12 | 36 | 6.4 | 9.7 | 0.00 | 0.00 | 0.00 | 72 | 1017.1 |
| 20260506004009 | 12 | 80 | 4.8 | 8.0 | 0.00 | 0.00 | 0.00 | 74 | 1017.0 |
| 20260506003508 | 12 | 34 | 4.8 | 6.4 | 0.00 | 0.00 | 0.00 | 72 | 1017.0 |
| 20260506003007 | 12 | 26 | 1.6 | 6.4 | 0.00 | 0.00 | 0.00 | 72 | 1017.0 |
| 20260506002508 | 13 | 58 | 0.0 | 6.4 | 0.00 | 0.00 | 0.00 | 71 | 1017.0 |
| 20260506002006 | 13 | 53 | 1.6 | 6.4 | 0.00 | 0.00 | 0.00 | 70 | 1017.1 |
| 20260506001506 | 13 | 74 | 3.2 | 8.0 | 0.00 | 0.00 | 0.00 | 70 | 1017.1 |
| 20260506001006 | 13 | 69 | 4.8 | 6.4 | 0.00 | 0.00 | 0.00 | 71 | 1017.1 |
| 20260506000506 | 13 | 59 | 4.8 | 6.4 | 0.00 | 0.00 | 0.00 | 71 | 1017.1 |
| 20260506000005 | 13 | 29 | 3.2 | 6.4 | 0.00 | 0.00 | 0.00 | 70 | 1017.1 |
| 20260505235504 | 13 | 61 | 4.8 | 8.0 | 0.00 | 0.00 | 0.00 | 72 | 1017.1 |
| 20260505235006 | 13 | 61 | 3.2 | 9.7 | 0.00 | 0.00 | 0.00 | 72 | 1017.2 |
| 20260505234510 | 12 | 40 | 8.0 | 9.7 | 0.00 | 0.00 | 0.00 | 73 | 1017.2 |
| 20260505234003 | 12 | 30 | 3.2 | 9.7 | 0.00 | 0.00 | 0.00 | 74 | 1017.2 |
| 20260505233501 | 12 | 30 | 4.8 | 9.7 | 0.00 | 0.00 | 0.00 | 73 | 1017.3 |
| 20260505233100 | 12 | 16 | 0.0 | 6.4 | 0.00 | 0.00 | 0.00 | 74 | 1017.2 |
| 20260505232559 | 13 | 95 | 0.0 | 4.8 | 0.00 | 0.00 | 0.00 | 72 | 1017.3 |
| 20260505232059 | 13 | 103 | 0.0 | 3.2 | 0.00 | 0.00 | 0.00 | 74 | 1017.3 |
| 20260505231559 | 13 | 102 | 0.0 | 4.8 | 0.00 | 0.00 | 0.00 | 70 | 1017.3 |
| 20260505231058 | 14 | 101 | 1.6 | 4.8 | 0.00 | 0.00 | 0.00 | 72 | 1017.4 |
| 20260505230559 | 14 | 59 | 1.6 | 3.2 | 0.00 | 0.00 | 0.00 | 72 | 1017.5 |
| 20260505230057 | 13 | 58 | 1.6 | 6.4 | 0.00 | 0.00 | 0.00 | 72 | 1017.5 |
| 20260505225559 | 13 | 57 | 1.6 | 6.4 | 0.00 | 0.00 | 0.00 | 73 | 1017.4 |
| 20260505225058 | 13 | 38 | 1.6 | 6.4 | 0.00 | 0.00 | 0.00 | 73 | 1017.6 |
| 20260505224557 | 13 | 38 | 1.6 | 6.4 | 0.00 | 0.00 | 0.00 | 74 | 1017.7 |
| 20260505224055 | 13 | 38 | 3.2 | 6.4 | 0.00 | 0.00 | 0.00 | 74 | 1017.6 |
| 20260505223555 | 13 | 36 | 3.2 | 6.4 | 0.00 | 0.00 | 0.00 | 73 | 1017.6 |
| 20260505223107 | 13 | 40 | 3.2 | 4.8 | 0.00 | 0.00 | 0.00 | 72 | 1017.6 |
| 20260505222554 | 13 | 40 | 0.0 | 4.8 | 0.00 | 0.00 | 0.00 | 73 | 1017.6 |
| 20260505222054 | 13 | 40 | 0.0 | 4.8 | 0.00 | 0.00 | 0.00 | 74 | 1017.7 |
| 20260505221554 | 13 | 25 | 1.6 | 4.8 | 0.00 | 0.00 | 0.00 | 73 | 1017.7 |
| 20260505221053 | 13 | 15 | 3.2 | 6.4 | 0.00 | 0.00 | 0.00 | 72 | 1017.7 |
| 20260505220551 | 13 | 12 | 3.2 | 6.4 | 0.00 | 0.00 | 0.00 | 72 | 1017.7 |
| 20260505220051 | 13 | 37 | 3.2 | 6.4 | 0.00 | 0.00 | 0.00 | 72 | 1017.7 |
| 20260505215553 | 13 | 71 | 1.6 | 8.0 | 0.00 | 0.00 | 0.00 | 72 | 1017.7 |
| 20260505215050 | 13 | 43 | 4.8 | 9.7 | 0.00 | 0.00 | 0.00 | 72 | 1017.6 |
| 20260505214557 | 13 | 35 | 6.4 | 9.7 | 0.00 | 0.00 | 0.00 | 72 | 1017.6 |
| 20260505214050 | 13 | 42 | 3.2 | 6.4 | 0.00 | 0.00 | 0.00 | 71 | 1017.6 |
| 20260505213547 | 14 | 56 | 0.0 | 4.8 | 0.00 | 0.00 | 0.00 | 71 | 1017.6 |
| 20260505213047 | 13 | 49 | 3.2 | 8.0 | 0.00 | 0.00 | 0.00 | 71 | 1017.6 |
| 20260505212546 | 14 | 46 | 3.2 | 8.0 | 0.00 | 0.00 | 0.00 | 70 | 1017.6 |
| 20260505212045 | 15 | 27 | 1.6 | 6.4 | 0.00 | 0.00 | 0.00 | 68 | 1017.6 |
| 20260505211550 | 15 | 80 | 1.6 | 6.4 | 0.00 | 0.00 | 0.00 | 68 | 1017.6 |
| 20260505211043 | 15 | 82 | 4.8 | 6.4 | 0.00 | 0.00 | 0.00 | 69 | 1017.6 |
| 20260505210540 | 15 | 65 | 3.2 | 8.0 | 0.00 | 0.00 | 0.00 | 70 | 1017.8 |
| 20260505210040 | 14 | 65 | 1.6 | 9.7 | 0.00 | 0.00 | 0.00 | 70 | 1017.7 |
| 20260505205539 | 14 | 48 | 6.4 | 8.0 | 0.00 | 0.00 | 0.00 | 70 | 1017.7 |
| 20260505205040 | 15 | 29 | 4.8 | 8.0 | 0.00 | 0.00 | 0.00 | 69 | 1017.6 |
| 20260505204539 | 15 | 47 | 3.2 | 8.0 | 0.00 | 0.00 | 0.00 | 69 | 1017.6 |
| 20260505204040 | 15 | 43 | 4.8 | 8.0 | 0.00 | 0.00 | 0.00 | 69 | 1017.7 |
| 20260505203539 | 14 | 43 | 3.2 | 8.0 | 0.00 | 0.00 | 0.00 | 70 | 1017.7 |
| 20260505203050 | 14 | 42 | 6.4 | 8.0 | 0.00 | 0.00 | 0.00 | 70 | 1017.7 |
| 20260505202539 | 15 | 11 | 4.8 | 8.0 | 0.00 | 0.00 | 0.00 | 69 | 1017.7 |
| 20260505202039 | 15 | 11 | 3.2 | 9.7 | 0.00 | 0.00 | 0.00 | 67 | 1017.8 |
| 20260505201538 | 15 | 30 | 4.8 | 9.7 | 0.00 | 0.00 | 0.00 | 66 | 1017.8 |
| 20260505201038 | 16 | 15 | 3.2 | 8.0 | 0.00 | 0.00 | 0.00 | 67 | 1017.8 |
| 20260505200538 | 16 | 55 | 4.8 | 9.7 | 0.00 | 0.00 | 0.00 | 68 | 1017.7 |
| 20260505200038 | 15 | 52 | 3.2 | 9.7 | 0.00 | 0.00 | 0.00 | 69 | 1017.8 |
| 20260505195539 | 16 | 53 | 6.4 | 9.7 | 0.00 | 0.00 | 0.00 | 69 | 1017.7 |
| 20260505195037 | 16 | 43 | 4.8 | 9.7 | 0.00 | 0.00 | 0.00 | 68 | 1017.8 |
| 20260505194542 | 16 | 28 | 4.8 | 8.0 | 0.00 | 0.00 | 0.00 | 67 | 1017.7 |
| 20260505194037 | 16 | 30 | 3.2 | 6.4 | 0.00 | 0.00 | 0.00 | 67 | 1017.6 |
| 20260505193537 | 16 | 30 | 0.0 | 4.8 | 0.00 | 0.00 | 0.00 | 67 | 1017.6 |
| 20260505193036 | 16 | 27 | 1.6 | 8.0 | 0.00 | 0.00 | 0.00 | 67 | 1017.6 |
| 20260505192540 | 16 | 36 | 4.8 | 9.7 | 0.00 | 0.00 | 0.00 | 67 | 1017.7 |
| 20260505192036 | 16 | 44 | 4.8 | 9.7 | 0.00 | 0.00 | 0.00 | 68 | 1017.6 |
| 20260505191543 | 16 | 21 | 3.2 | 6.4 | 0.00 | 0.00 | 0.00 | 68 | 1017.6 |
| 20260505191036 | 17 | 20 | 3.2 | 6.4 | 0.00 | 0.00 | 0.00 | 67 | 1017.7 |
| 20260505190535 | 17 | 17 | 3.2 | 6.4 | 0.00 | 0.00 | 0.00 | 66 | 1017.6 |
| 20260505190036 | 17 | 37 | 3.2 | 6.4 | 0.00 | 0.00 | 0.00 | 64 | 1017.6 |
| 20260505185539 | 18 | 10 | 1.6 | 8.0 | 0.00 | 0.00 | 0.00 | 62 | 1017.6 |
| 20260505185035 | 18 | 49 | 3.2 | 8.0 | 0.00 | 0.00 | 0.00 | 60 | 1017.4 |
| 20260505184545 | 18 | 41 | 3.2 | 4.8 | 0.00 | 0.00 | 0.00 | 57 | 1017.4 |
| 20260505184035 | 18 | 355 | 1.6 | 6.4 | 0.00 | 0.00 | 0.00 | 58 | 1017.4 |
| 20260505183537 | 18 | 360 | 0.0 | 6.4 | 0.00 | 0.00 | 0.00 | 57 | 1017.4 |
| 20260505183041 | 19 | 301 | 3.2 | 4.8 | 0.00 | 0.00 | 0.00 | 55 | 1017.3 |
| 20260505182538 | 19 | 292 | 0.0 | 6.4 | 0.00 | 0.00 | 0.00 | 54 | 1017.2 |
| 20260505182034 | 19 | 299 | 4.8 | 6.4 | 0.00 | 0.00 | 0.00 | 55 | 1017.3 |
| 20260505181535 | 19 | 273 | 3.2 | 8.0 | 0.00 | 0.00 | 0.00 | 55 | 1017.3 |
| 20260505181037 | 19 | 246 | 3.2 | 8.0 | 0.00 | 0.00 | 0.00 | 54 | 1017.2 |
| 20260505180536 | 20 | 282 | 3.2 | 6.4 | 0.00 | 0.00 | 0.00 | 53 | 1017.1 |
| 20260505180034 | 20 | 223 | 3.2 | 6.4 | 0.00 | 0.00 | 0.00 | 52 | 1017.1 |
| 20260505175533 | 20 | 241 | 3.2 | 4.8 | 0.00 | 0.00 | 0.00 | 51 | 1017.0 |
| 20260505175033 | 20 | 246 | 0.0 | 4.8 | 0.00 | 0.00 | 0.00 | 50 | 1017.0 |
| 20260505174533 | 20 | 249 | 0.0 | 8.0 | 0.00 | 0.00 | 0.00 | 49 | 1017.0 |
| 20260505174033 | 20 | 259 | 4.8 | 11.3 | 0.00 | 0.00 | 0.00 | 48 | 1017.0 |
| 20260505173533 | 20 | 270 | 6.4 | 11.3 | 0.00 | 0.00 | 0.00 | 48 | 1016.9 |
| 20260505173033 | 20 | 269 | 3.2 | 6.4 | 0.00 | 0.00 | 0.00 | 47 | 1016.8 |
| 20260505172532 | 21 | 271 | 4.8 | 9.7 | 0.00 | 0.00 | 0.00 | 47 | 1016.8 |
| 20260505172033 | 21 | 181 | 6.4 | 9.7 | 0.00 | 0.00 | 0.00 | 49 | 1016.9 |
| 20260505171534 | 21 | 144 | 1.6 | 12.9 | 0.00 | 0.00 | 0.00 | 50 | 1016.9 |
| 20260505171032 | 21 | 117 | 8.0 | 12.9 | 0.00 | 0.00 | 0.00 | 49 | 1017.0 |
| 20260505170532 | 21 | 155 | 4.8 | 12.9 | 0.00 | 0.00 | 0.00 | 50 | 1017.1 |
| 20260505170036 | 21 | 161 | 8.0 | 12.9 | 0.00 | 0.00 | 0.00 | 50 | 1017.1 |
| 20260505165531 | 21 | 155 | 8.0 | 14.5 | 0.00 | 0.00 | 0.00 | 50 | 1016.9 |
| 20260505165031 | 21 | 142 | 6.4 | 14.5 | 0.00 | 0.00 | 0.00 | 51 | 1016.9 |
| 20260505164535 | 21 | 155 | 4.8 | 16.1 | 0.00 | 0.00 | 0.00 | 51 | 1016.9 |
| 20260505164030 | 21 | 166 | 9.7 | 16.1 | 0.00 | 0.00 | 0.00 | 50 | 1017.0 |
| 20260505163529 | 22 | 155 | 4.8 | 14.5 | 0.00 | 0.00 | 0.00 | 49 | 1017.0 |
| 20260505163029 | 22 | 173 | 8.0 | 11.3 | 0.00 | 0.00 | 0.00 | 49 | 1017.1 |
| 20260505162532 | 22 | 195 | 6.4 | 8.0 | 0.00 | 0.00 | 0.00 | 37 | 1017.1 |
| 20260505162029 | 22 | 196 | 3.2 | 11.3 | 0.00 | 0.00 | 0.00 | 37 | 1017.0 |
| 20260505161529 | 22 | 171 | 6.4 | 14.5 | 0.00 | 0.00 | 0.00 | 37 | 1017.0 |
| 20260505161031 | 22 | 225 | 4.8 | 9.7 | 0.00 | 0.00 | 0.00 | 37 | 1016.9 |
| 20260505160527 | 23 | 244 | 6.4 | 12.9 | 0.00 | 0.00 | 0.00 | 37 | 1016.8 |
| 20260505153016 | 23 | 240 | 8.0 | 11.3 | 0.00 | 0.00 | 0.00 | 36 | 1016.7 |
| 20260505152516 | 23 | 252 | 6.4 | 12.9 | 0.00 | 0.00 | 0.00 | 36 | 1016.7 |
| 20260505152014 | 23 | 259 | 9.7 | 12.9 | 0.00 | 0.00 | 0.00 | 36 | 1016.6 |
| 20260505151517 | 23 | 226 | 9.7 | 14.5 | 0.00 | 0.00 | 0.00 | 37 | 1016.5 |
| 20260505151013 | 23 | 265 | 8.0 | 14.5 | 0.00 | 0.00 | 0.00 | 37 | 1016.5 |
| 20260505150513 | 23 | 252 | 8.0 | 19.3 | 0.00 | 0.00 | 0.00 | 37 | 1016.6 |
| 20260505140503 | 23 | 224 | 11.3 | 17.7 | 0.00 | 0.00 | 0.00 | 34 | 1016.7 |
| 20260505124556 | 23 | 219 | 14.5 | 24.1 | 0.00 | 0.00 | 0.00 | 33 | 1017.3 |
| 20260505124053 | 23 | 193 | 11.3 | 20.9 | 0.00 | 0.00 | 0.00 | 33 | 1017.2 |
| 20260505123552 | 23 | 229 | 9.7 | 19.3 | 0.00 | 0.00 | 0.00 | 33 | 1017.3 |
| 20260505123054 | 23 | 243 | 14.5 | 25.7 | 0.00 | 0.00 | 0.00 | 33 | 1017.3 |
| 20260505122550 | 23 | 203 | 11.3 | 25.7 | 0.00 | 0.00 | 0.00 | 33 | 1017.3 |
| 20260505122050 | 23 | 188 | 11.3 | 19.3 | 0.00 | 0.00 | 0.00 | 34 | 1017.3 |
| 20260505121551 | 24 | 180 | 11.3 | 19.3 | 0.00 | 0.00 | 0.00 | 33 | 1017.4 |
| 20260505121049 | 23 | 281 | 11.3 | 20.9 | 0.00 | 0.00 | 0.00 | 34 | 1017.7 |
| 20260505120548 | 23 | 188 | 8.0 | 20.9 | 0.00 | 0.00 | 0.00 | 35 | 1017.7 |
| 20260505120057 | 23 | 207 | 8.0 | 27.4 | 0.00 | 0.00 | 0.00 | 36 | 1017.8 |
| 20260505115548 | 23 | 215 | 16.1 | 27.4 | 0.00 | 0.00 | 0.00 | 35 | 1017.8 |
| 20260505115048 | 23 | 170 | 14.5 | 24.1 | 0.00 | 0.00 | 0.00 | 35 | 1017.7 |
| 20260505114547 | 23 | 159 | 16.1 | 25.7 | 0.00 | 0.00 | 0.00 | 36 | 1017.8 |
| 20260505114046 | 23 | 188 | 16.1 | 25.7 | 0.00 | 0.00 | 0.00 | 36 | 1017.8 |
| 20260505113547 | 23 | 167 | 12.9 | 27.4 | 0.00 | 0.00 | 0.00 | 37 | 1017.7 |
| 20260505113049 | 24 | 192 | 9.7 | 25.7 | 0.00 | 0.00 | 0.00 | 37 | 1017.6 |
| 20260505112544 | 23 | 244 | 11.3 | 32.2 | 0.00 | 0.00 | 0.00 | 38 | 1017.7 |
| 20260505112044 | 24 | 291 | 17.7 | 32.2 | 0.00 | 0.00 | 0.00 | 34 | 1017.7 |
| 20260505111546 | 23 | 277 | 9.7 | 25.7 | 0.00 | 0.00 | 0.00 | 37 | 1017.8 |
| 20260505111045 | 23 | 255 | 11.3 | 16.1 | 0.00 | 0.00 | 0.00 | 39 | 1017.7 |
| 20260505110541 | 23 | 182 | 8.0 | 16.1 | 0.00 | 0.00 | 0.00 | 36 | 1017.8 |
| 20260505102035 | 22 | 175 | 8.0 | 24.1 | 0.00 | 0.00 | 0.00 | 38 | 1018.0 |
| 20260505101536 | 22 | 225 | 12.9 | 24.1 | 0.00 | 0.00 | 0.00 | 39 | 1018.2 |
| 20260505101032 | 23 | 250 | 14.5 | 24.1 | 0.00 | 0.00 | 0.00 | 38 | 1018.2 |
| 20260505100531 | 22 | 217 | 14.5 | 25.7 | 0.00 | 0.00 | 0.00 | 39 | 1018.0 |
| 20260505100034 | 22 | 253 | 14.5 | 22.5 | 0.00 | 0.00 | 0.00 | 39 | 1018.1 |
| 20260505095527 | 22 | 263 | 14.5 | 24.1 | 0.00 | 0.00 | 0.00 | 39 | 1018.1 |
| 20260505095026 | 22 | 237 | 9.7 | 20.9 | 0.00 | 0.00 | 0.00 | 40 | 1018.1 |
| 20260505094527 | 22 | 241 | 8.0 | 20.9 | 0.00 | 0.00 | 0.00 | 40 | 1018.3 |
| 20260505094024 | 22 | 271 | 3.2 | 24.1 | 0.00 | 0.00 | 0.00 | 39 | 1018.3 |
| 20260505093523 | 22 | 288 | 16.1 | 24.1 | 0.00 | 0.00 | 0.00 | 40 | 1018.4 |
| 20260505093025 | 22 | 259 | 14.5 | 22.5 | 0.00 | 0.00 | 0.00 | 39 | 1018.5 |
| 20260505092521 | 22 | 293 | 14.5 | 20.9 | 0.00 | 0.00 | 0.00 | 40 | 1018.5 |
| 20260505092020 | 22 | 242 | 11.3 | 20.9 | 0.00 | 0.00 | 0.00 | 41 | 1018.5 |
| 20260505091519 | 22 | 211 | 9.7 | 25.7 | 0.00 | 0.00 | 0.00 | 40 | 1018.5 |
| 20260505091017 | 21 | 222 | 14.5 | 25.7 | 0.00 | 0.00 | 0.00 | 41 | 1018.5 |
| 20260505090516 | 22 | 261 | 11.3 | 17.7 | 0.00 | 0.00 | 0.00 | 41 | 1018.5 |
| 20260505090020 | 21 | 248 | 9.7 | 16.1 | 0.00 | 0.00 | 0.00 | 40 | 1018.4 |
| 20260505085515 | 21 | 219 | 11.3 | 16.1 | 0.00 | 0.00 | 0.00 | 41 | 1018.5 |
| 20260505085014 | 21 | 234 | 9.7 | 19.3 | 0.00 | 0.00 | 0.00 | 40 | 1018.4 |
| 20260505084525 | 21 | 200 | 8.0 | 16.1 | 0.00 | 0.00 | 0.00 | 43 | 1018.6 |
| 20260505084011 | 21 | 208 | 6.4 | 16.1 | 0.00 | 0.00 | 0.00 | 42 | 1018.6 |
| 20260505083510 | 21 | 215 | 4.8 | 12.9 | 0.00 | 0.00 | 0.00 | 42 | 1018.7 |
| 20260505083010 | 21 | 186 | 6.4 | 12.9 | 0.00 | 0.00 | 0.00 | 42 | 1018.8 |
| 20260505082509 | 21 | 225 | 9.7 | 17.7 | 0.00 | 0.00 | 0.00 | 43 | 1018.9 |
| 20260505082008 | 21 | 256 | 9.7 | 17.7 | 0.00 | 0.00 | 0.00 | 43 | 1018.8 |
| 20260505081508 | 20 | 208 | 6.4 | 14.5 | 0.00 | 0.00 | 0.00 | 44 | 1018.9 |
| 20260505081005 | 20 | 219 | 8.0 | 12.9 | 0.00 | 0.00 | 0.00 | 43 | 1018.9 |
| 20260505080507 | 20 | 208 | 6.4 | 12.9 | 0.00 | 0.00 | 0.00 | 45 | 1018.9 |
| 20260505080008 | 20 | 259 | 3.2 | 12.9 | 0.00 | 0.00 | 0.00 | 46 | 1018.9 |
| 20260505075502 | 19 | 211 | 6.4 | 11.3 | 0.00 | 0.00 | 0.00 | 46 | 1018.9 |
| 20260505075101 | 19 | 217 | 4.8 | 11.3 | 0.00 | 0.00 | 0.00 | 46 | 1019.0 |
| 20260505074559 | 19 | 248 | 4.8 | 14.5 | 0.00 | 0.00 | 0.00 | 46 | 1018.9 |
| 20260505074058 | 18 | 257 | 8.0 | 14.5 | 0.00 | 0.00 | 0.00 | 48 | 1018.9 |
| 20260505073557 | 18 | 272 | 8.0 | 14.5 | 0.00 | 0.00 | 0.00 | 47 | 1018.9 |
| 20260505073058 | 18 | 271 | 4.8 | 9.7 | 0.00 | 0.00 | 0.00 | 47 | 1019.0 |
| 20260505072558 | 18 | 217 | 3.2 | 8.0 | 0.00 | 0.00 | 0.00 | 49 | 1018.9 |
| 20260505072056 | 18 | 243 | 4.8 | 8.0 | 0.00 | 0.00 | 0.00 | 47 | 1018.9 |
| 20260505071552 | 18 | 203 | 0.0 | 8.0 | 0.00 | 0.00 | 0.00 | 50 | 1019.0 |
| 20260505071050 | 18 | 263 | 4.8 | 8.0 | 0.00 | 0.00 | 0.00 | 50 | 1018.9 |
| 20260505070549 | 17 | 256 | 1.6 | 6.4 | 0.00 | 0.00 | 0.00 | 51 | 1018.9 |
| 20260505070101 | 17 | 214 | 3.2 | 6.4 | 0.00 | 0.00 | 0.00 | 52 | 1018.9 |
| 20260505065547 | 17 | 209 | 4.8 | 8.0 | 0.00 | 0.00 | 0.00 | 52 | 1018.8 |
| 20260505065045 | 17 | 249 | 1.6 | 8.0 | 0.00 | 0.00 | 0.00 | 53 | 1018.8 |
| 20260505064537 | 16 | 225 | 3.2 | 8.0 | 0.00 | 0.00 | 0.00 | 54 | 1018.8 |
| 20260505064033 | 16 | 259 | 3.2 | 6.4 | 0.00 | 0.00 | 0.00 | 54 | 1018.8 |
| 20260505063533 | 16 | 226 | 0.0 | 6.4 | 0.00 | 0.00 | 0.00 | 54 | 1018.9 |
| 20260505063031 | 16 | 198 | 3.2 | 6.4 | 0.00 | 0.00 | 0.00 | 54 | 1018.8 |
| 20260505062530 | 16 | 248 | 0.0 | 6.4 | 0.00 | 0.00 | 0.00 | 55 | 1018.8 |
| 20260505062027 | 16 | 273 | 3.2 | 6.4 | 0.00 | 0.00 | 0.00 | 57 | 1018.7 |
| 20260505061531 | 16 | 265 | 3.2 | 6.4 | 0.00 | 0.00 | 0.00 | 57 | 1018.7 |
| 20260505061029 | 15 | 264 | 1.6 | 4.8 | 0.00 | 0.00 | 0.00 | 58 | 1018.7 |
| 20260505060525 | 16 | 317 | 1.6 | 4.8 | 0.00 | 0.00 | 0.00 | 57 | 1018.6 |
| 20260505060025 | 15 | 281 | 1.6 | 4.8 | 0.00 | 0.00 | 0.00 | 58 | 1018.7 |
| 20260505055522 | 15 | 275 | 0.0 | 4.8 | 0.00 | 0.00 | 0.00 | 59 | 1018.8 |
| 20260505055021 | 15 | 275 | 0.0 | 4.8 | 0.00 | 0.00 | 0.00 | 60 | 1018.7 |
| 20260505054522 | 15 | 61 | 1.6 | 4.8 | 0.00 | 0.00 | 0.00 | 61 | 1018.8 |